Probability
0 0 0 0 0 0 0 0 0 0 0 0 0 0 0 0 0 0 0 0 0 0 0 0 0 0 0 0 0 0 0 0 0 0 0 0 0 0 0 0 0 0 0
0 0 0 0 0 0 0 0 0 0 0 0 0 0 0 0 0 0 0 0 0 0 0 0 0 0 0 0 0 0 0 0 0 0 0 0 0 0 0 0 0 0 0
0 0 0 0 0 0 0 0 0 0 0 0 0 0 0 0 0 0 0 0 0 0 0 0 0 0 0 0 0 0 0 0 0 0 0 0 0 0 0 0 0 0 0
0 0 0 0 0 0 0 0 0 0 0 0 0 0 0 0 0 0 0 0 0 0 0 0 0 0 0 0 0 0 0 0 0 0 0 0 0 0 0 0 0 0 0
0 0 0 0 0 0 0 0 0 0 0 0 0 0 0 0 0 0 0 0 0 0 0 0 0 0 0 0 0 0 0 0 0 0 0 0 0 0 0 0 0 0 0
0 0 0 0 0 0 0 0 0 0 0 0 0 0 0 0 0 0 0 0 0 0 0 0 0 0 0 0 0 0 0 0 0 0 0 0 0 0 0 0 0 0 0
0 0 0 0 0 0 0 0 0 0 0 0 0 0 0 0 0 0 0 0 0 0 0 0 0 0 0 0 0 0 0 0 0 0 0 0 0 0 0 0 0 0 0
0 0 0 0 0 0 0 0 0 0 0 0 0 0 0 0 0 0 0 0 0 0 0 0 0 0 0 0 0 0 0 0 0 0 0 0 0 0 0 0 0 0 0
0 0 0 0 0 0 0 0 0 0 0 0 0 0 0 0 0 0 0 0 0 0 0 0 0 0 0 0 0 0 0 0 0 0 0 0 0 0 0 0 0 0 0
0 0 0 0 0 0 0 0 0 0 0 0 0 0 0 0 0 0 0 0 0 0 0 0 0 0 0 0 0 0 0 0 0 0 0 0 0 0 0 0 0 0 0
0 0 0 0 0 0 0 0 0 0 0 0 0 0 0 0 0 0 0 0 0 0 0 0 0 0 0 0 0 0 0 0 0 0 0 0 0 0 0 1 1 2 2
0 0 0 0 0 0 0 0 0 0 0 0 0 0 0 0 0 0 0 0 0 0 0 0 0 0 0 0 0 0 0 0 0 0 0 0 0 0 0 1 2 4 6
0 0 0 0 0 0 0 0 0 0 0 0 0 0 0 0 0 0 0 0 0 0 0 0 0 0 0 0 0 0 0 0 0 0 0 0 0 0 0 1 1 3 5
0 0 0 0 0 0 0 0 0 0 0 0 0 0 0 0 0 0 0 0 0 0 0 0 0 0 0 0 0 0 0 0 0 0 0 0 0 0 0 0 0 1 2
0 0 0 0 0 0 0 0 0 0 0 0 0 0 0 0 0 0 0 0 0 0 0 0 0 0 0 0 0 0 0 0 0 0 0 0 0 0 0 0 0 0 1
0 0 0 0 0 0 0 0 0 0 0 0 0 0 0 0 0 0 0 0 0 0 0 0 0 0 0 0 0 0 0 0 0 0 0 0 0 0 0 0 0 0 0
0 0 0 0 0 0 0 0 0 0 0 0 0 0 0 0 0 0 0 0 0 0 0 0 0 0 0 0 0 0 0 0 0 0 0 0 0 0 0 0 0 0 0
0 0 0 0 0 0 0 0 0 0 0 0 0 0 0 0 0 0 0 0 0 0 0 0 0 0 0 0 0 0 0 0 0 0 0 0 0 0 0 0 0 0 0
0 0 0 0 0 0 0 0 0 0 0 0 0 0 0 0 0 0 0 0 0 0 0 0 0 0 0 0 0 0 0 0 0 0 0 0 0 0 0 0 0 0 0
0 0 0 0 0 0 0 0 0 0 0 0 0 0 0 0 0 0 0 0 0 0 0 0 0 0 0 0 0 0 0 0 0 0 0 0 0 0 0 0 0 0 0
0 0 0 0 0 0 0 0 0 0 0 0 0 0 0 0 0 0 0 0 0 0 0 0 0 0 0 0 0 0 0 0 0 0 0 0 0 0 0 0 0 0 0
0 0 0 0 0 0 0 0 0 0 0 0 0 0 0 0 0 0 0 0 0 0 0 0 0 0 0 0 0 0 0 0 0 0 0 0 0 0 0 0 0 0 0
0 0 0 0 0 0 0 0 0 0 0 0 0 0 0 0 0 0 0 0 0 0 0 0 0 0 0 0 0 0 0 0 0 0 0 0 0 0 0 0 0 0 0
0 0 0 0 0 0 0 0 0 0 0 0 0 0 0 0 0 0 0 0 0 0 0 0 0 0 0 0 0 0 0 0 0 0 0 0 0 0 0 0 0 0 0
0 0 0 0 0 0 0 0 0 0 0 0 0 0 0 0 0 0 0 0 0 0 0 0 0 0 0 0 0 0 0 0 0 0 0 0 0 0 0 0 0 0 0
0 0 0 0 0 0 0 0 0 0 0 0 0 0 0 0 0 0 0 0 0 0 0 0 0 0 0 0 0 0 0 0 0 0 0 0 0 0 0 0 0 0 0
Wind_Speed
5 5 4 4 4 4 3 4 4 5 5 6 5 5 6 5 4 3 3 10 13 14 14 14 14 15 15 15 16 16 14 14 15 13 10 9 9 9 9 8 8 9 9
6 6 6 5 4 4 4 4 5 4 4 5 5 5 5 4 3 2 2 6 12 13 14 14 14 15 15 15 15 16 16 15 15 16 14 11 11 11 11 10 9 9 10
8 7 6 5 5 4 4 4 5 4 4 5 5 5 4 2 1 2 3 3 5 9 13 14 15 15 15 15 15 15 16 16 15 16 17 15 13 12 13 13 12 12 12
10 8 6 6 5 4 4 4 4 4 5 6 5 4 3 1 2 3 3 4 4 4 7 11 13 14 15 15 15 15 16 16 16 16 17 17 15 13 14 16 15 15 15
10 9 7 6 6 5 4 4 4 5 6 7 6 4 3 2 3 2 4 4 5 5 5 6 9 10 13 14 14 14 15 16 16 17 18 17 15 15 16 17 17 16 16
11 10 8 8 6 5 4 3 4 5 5 7 6 3 1 1 3 1 4 3 3 5 6 7 7 7 10 11 13 14 16 17 18 18 19 19 17 17 18 18 18 17 18
10 10 8 7 6 5 5 5 4 5 6 6 5 3 0 2 2 1 3 2 3 4 6 9 8 8 7 11 13 15 17 19 19 20 20 20 19 19 20 20 19 19 20
10 8 9 7 6 6 6 5 5 4 4 5 5 4 4 0 2 2 2 3 4 6 7 10 10 10 9 8 11 16 16 18 20 21 21 21 20 21 21 21 21 22 23
9 10 10 8 7 6 5 5 5 5 4 4 4 4 4 3 5 4 5 5 5 6 8 9 11 11 10 8 9 11 16 18 20 21 21 21 22 22 22 23 24 26 26
10 10 10 9 8 6 5 5 5 4 4 3 2 2 3 3 5 6 5 5 7 9 9 8 11 10 10 9 10 14 16 19 22 24 24 24 24 24 25 26 27 28 29
10 10 9 8 8 6 6 5 4 3 2 2 2 2 2 3 5 5 8 8 7 7 7 9 9 8 8 9 9 12 18 22 25 26 26 26 26 27 28 29 30 31 31
8 10 9 8 7 6 6 5 3 2 0 1 2 2 3 4 4 5 8 10 10 8 10 7 7 7 8 10 11 17 20 23 25 25 26 27 27 28 29 30 31 32 32
8 10 8 7 6 6 5 5 3 2 1 3 3 3 4 5 5 6 8 10 12 11 8 6 6 7 8 8 11 19 21 24 24 24 25 27 28 28 29 30 31 33 34
9 10 8 7 7 6 5 4 2 2 2 3 4 5 5 5 5 6 8 10 11 9 8 11 9 7 6 9 13 20 17 22 23 24 27 29 29 30 30 31 31 32 33
9 10 9 8 6 5 4 3 2 2 2 3 5 6 5 5 6 6 7 8 9 11 12 10 6 7 10 11 14 15 16 21 24 27 28 29 29 30 31 33 33 34 34
11 10 9 7 6 5 4 3 3 2 3 4 4 6 7 6 6 7 7 8 9 12 13 9 12 13 13 12 17 17 16 23 25 26 27 28 30 31 32 33 33 33 33
11 10 8 7 6 5 4 3 2 2 4 5 5 7 8 9 7 7 7 8 9 10 15 14 12 13 17 17 15 14 15 16 16 25 28 30 30 31 31 31 32 33 32
10 9 8 6 5 4 3 3 3 4 5 6 7 7 8 7 9 8 8 9 9 11 14 18 15 14 17 17 16 16 15 14 16 22 27 29 30 31 31 31 32 33 33
9 8 6 5 4 3 2 3 4 5 6 6 7 8 9 9 10 8 10 10 10 11 13 15 17 15 14 13 16 17 17 15 15 17 23 25 27 30 31 32 33 33 33
8 7 6 4 3 1 3 4 5 6 7 7 8 8 9 9 10 11 11 12 12 14 15 15 15 14 13 15 15 14 14 13 13 13 18 20 25 28 29 30 31 32 32
7 6 5 3 1 2 2 5 6 7 8 9 9 9 9 10 14 13 12 13 14 13 13 14 13 14 15 14 14 13 14 14 15 13 15 14 15 15 17 22 26 28 30
6 5 3 1 1 2 4 7 8 9 8 9 10 10 10 11 13 17 19 20 20 17 16 14 14 16 18 16 15 14 15 16 16 12 14 16 15 16 15 15 23 29 31
5 3 1 1 3 3 6 8 10 10 9 8 9 10 9 9 14 13 16 20 19 20 21 18 17 17 17 16 17 18 16 17 17 15 16 18 15 16 15 16 27 31 31
3 1 1 2 4 4 6 10 12 10 8 9 9 11 12 11 11 15 16 15 14 16 17 14 14 16 16 16 17 18 18 17 17 14 14 17 16 15 15 15 24 29 29
2 0 2 4 5 5 6 11 12 9 7 9 10 11 12 12 16 20 16 15 16 15 15 19 22 21 25 25 20 13 13 13 15 14 12 13 14 15 16 15 15 21 23
1 1 3 4 5 6 8 11 13 7 8 9 9 10 12 13 18 20 16 16 16 15 15 16 16 17 16 16 18 13 11 12 13 11 9 10 12 13 12 10 11 13 16
Wind_Direction
137 118 102 90 76 60 50 31 17 16 3 351 348 340 340 339 338 353 74 49 42 41 40 34 29 25 19 17 17 13 11 9 3 357 352 354 355 349 343 335 331 330 319
129 117 105 90 77 61 45 33 25 4 353 344 340 341 337 338 354 20 55 78 57 44 42 36 28 21 14 10 6 2 360 359 358 354 348 341 338 337 332 325 321 322 322
130 120 113 106 94 82 63 37 24 357 353 339 335 345 341 329 51 67 59 46 65 57 44 33 25 18 10 0 355 352 349 346 343 340 332 323 318 320 319 315 310 307 306
127 120 115 104 98 84 66 50 14 2 1 347 340 343 328 238 131 80 67 47 38 28 45 31 18 10 0 350 343 341 339 335 333 329 322 314 306 305 304 300 297 296 296
133 127 115 110 103 89 74 61 37 13 1 350 340 340 338 199 141 107 31 28 38 18 6 15 359 355 349 343 337 333 330 326 323 319 313 307 302 301 299 294 290 290 291
131 122 115 114 111 102 88 73 61 35 8 344 330 338 26 168 204 279 339 9 30 12 0 349 338 339 337 334 331 324 320 318 314 311 306 299 294 293 291 288 285 285 287
128 122 119 116 109 97 86 62 49 39 23 353 333 330 246 170 208 60 352 357 14 6 343 343 337 332 324 326 324 321 316 313 310 307 302 296 291 289 287 285 283 284 284
127 123 122 119 114 107 92 70 48 38 37 16 350 333 333 251 163 346 343 336 336 347 339 338 330 323 322 323 322 320 320 318 312 306 300 295 292 290 289 289 287 285 283
126 122 122 121 117 109 98 74 53 37 25 30 18 353 333 332 324 289 319 312 327 333 328 325 318 317 317 316 314 319 322 317 310 304 300 298 296 295 293 292 290 288 286
124 122 124 124 119 113 111 91 67 50 15 8 20 6 331 315 296 304 289 294 312 309 307 312 313 309 311 314 311 312 320 317 311 306 301 297 296 297 296 295 293 291 289
125 127 128 124 118 115 112 104 93 69 32 352 338 324 303 286 269 288 299 309 307 296 298 304 300 300 310 311 310 316 320 315 311 305 301 300 300 298 296 295 295 293 292
132 130 128 123 123 124 123 115 111 111 75 280 282 293 304 298 299 290 293 303 306 307 303 294 287 300 311 309 311 319 313 311 307 303 301 300 298 297 298 298 297 296 294
142 138 134 133 128 131 128 125 135 166 231 269 281 293 285 277 286 285 287 298 301 300 292 283 286 294 300 303 313 313 307 303 301 300 300 299 298 298 298 297 295 293 291
137 136 135 135 138 140 135 135 154 187 236 261 280 285 282 280 280 278 287 300 302 295 292 301 304 293 300 306 301 303 295 295 295 295 295 295 296 296 296 294 293 292 290
133 135 138 143 145 139 135 153 181 190 231 272 286 284 282 283 280 279 281 283 290 298 303 303 300 304 304 299 298 294 292 291 293 293 292 293 294 294 293 292 292 291 289
134 138 144 148 146 144 155 176 196 209 268 287 294 293 293 286 286 282 278 277 277 284 289 292 300 300 304 297 292 290 290 293 290 289 290 291 291 291 292 292 291 290 288
137 141 146 148 150 158 171 197 225 256 286 295 293 296 296 297 292 288 286 284 283 285 288 294 298 302 300 296 296 298 298 294 290 290 291 292 292 292 290 289 289 288 287
134 138 143 147 149 162 194 241 267 279 292 297 301 300 295 296 293 293 293 292 291 289 290 297 301 300 298 301 301 301 297 291 290 293 295 293 292 290 289 288 287 286 285
131 137 143 144 148 167 234 277 286 290 291 292 298 302 301 299 298 299 299 295 293 292 291 293 296 298 299 302 302 298 298 297 296 295 295 292 290 289 289 288 287 287 286
133 137 135 132 140 204 270 286 292 292 289 287 289 295 295 296 299 302 300 299 299 299 295 292 293 299 303 304 302 304 304 301 299 299 293 291 289 290 289 288 287 286 285
128 132 134 136 157 283 308 313 304 294 289 288 288 291 291 296 298 300 301 302 303 298 296 295 299 306 303 305 305 307 304 304 300 299 296 294 294 290 290 287 285 283 283
132 135 135 139 315 330 330 315 313 302 294 291 295 299 299 295 296 302 304 302 297 296 298 301 302 300 301 304 307 306 306 303 303 305 301 297 295 291 289 286 286 288 287
139 144 135 324 318 340 322 318 315 304 298 297 298 298 297 301 307 304 300 298 297 295 295 296 297 296 299 304 305 302 301 299 298 302 301 294 295 292 292 290 292 290 289
143 136 345 328 318 326 322 318 317 302 297 294 293 297 302 305 304 305 305 304 304 300 299 300 294 294 296 298 299 299 298 295 292 289 290 292 298 297 298 295 292 289 288
130 29 324 320 314 315 324 321 322 309 299 299 301 302 301 299 306 311 312 310 306 305 305 300 296 294 295 296 296 294 292 293 295 298 297 290 297 304 298 291 290 293 293
54 327 315 315 314 320 330 327 325 309 307 307 305 303 302 306 312 317 317 312 309 310 308 305 303 300 297 294 293 288 291 292 295 297 294 297 300 310 304 291 297 300 297